This is the latest recevied weather packets stored in our database for station/object NW5W-12. If no packets are shown the sender has not sent any weather packets the latest 10 day(s).
| Time | Temp. | Humidity | Pressure | Rain* | Wind** | Luminosity | Snow |
|---|---|---|---|---|---|---|---|
| 1788052740 | 16.67° C | 77% | 1021.3 hPa | 7.62 mm | - | - | - |
| 1788052440 | 17.22° C | 74% | 1019.9 hPa | 4.83 mm | - | - | - |
| 1788052140 | 17.78° C | 72% | 1019.2 hPa | 4.83 mm | - | - | - |
| 1788051840 | 17.78° C | 71% | 1018.9 hPa | 4.83 mm | - | - | - |
| 1788051540 | 17.78° C | 69% | 1018.8 hPa | 4.83 mm | - | - | - |
| 1788051240 | 18.33° C | 66% | 1018.6 hPa | 4.83 mm | - | - | - |
| 1788050939 | 18.33° C | 65% | 1018.9 hPa | 4.83 mm | - | - | - |
| 1788050640 | 18.89° C | 61% | 1019.4 hPa | 4.83 mm | - | - | - |
| 1788050340 | 18.89° C | 60% | 1019.4 hPa | 4.83 mm | - | - | - |
| 1788050040 | 18.89° C | 59% | 1019.4 hPa | 4.83 mm | - | - | - |
| 1788049740 | 18.89° C | 57% | 1019.3 hPa | 4.83 mm | - | - | - |
| 1788049440 | 18.89° C | 54% | 1019.3 hPa | 4.83 mm | - | - | - |
| 1788049140 | 18.89° C | 56% | 1019.3 hPa | 4.83 mm | - | - | - |
| 1788048840 | 18.33° C | 60% | 1019.3 hPa | 4.83 mm | - | - | - |
| 1788048540 | 18.33° C | 59% | 1019.3 hPa | 4.83 mm | - | - | - |
| 1788048239 | 18.33° C | 59% | 1019.2 hPa | 4.83 mm | - | - | - |
| 1788047940 | 17.78° C | 60% | 1019.1 hPa | 4.83 mm | - | - | - |
| 1788047639 | 17.78° C | 60% | 1019.5 hPa | 4.83 mm | - | - | - |
| 1788047340 | 17.78° C | 63% | 1019.7 hPa | 4.83 mm | - | - | - |
| 1788047040 | 17.78° C | 62% | 1019.7 hPa | 4.83 mm | - | - | - |
| 1788046740 | 17.78° C | 64% | 1019.7 hPa | 4.83 mm | - | - | - |
| 1788046440 | 17.22° C | 63% | 1019.9 hPa | 4.83 mm | - | - | - |
| 1788046139 | 17.22° C | 65% | 1019.8 hPa | 4.83 mm | - | - | - |
| 1788045840 | 16.67° C | 65% | 1019.7 hPa | 4.83 mm | - | - | - |
| 1788045540 | 17.22° C | 68% | 1019.7 hPa | 4.83 mm | - | - | - |
* Rain since midnight (hover to see other rain measurements)
** Current wind speed in m/s (hover to see current wind gust speed)